Content
SEND FEEDBACK

Daily
Averages
Monthly
Summary
United States of America

CHESTERFIELD, MISSOURI


Home > North America > United States > Missouri
Elevation: 559 feet     Latitude: 38 41N     Longitude: 090 31W

WEATHER
 
SELECT A DAY
Number of Records: 203,416;   Date Range: 1/1/95 - 7/26/14
 
SHARE

PRINT THIS DATA

[ ← Previous Day ]
WEATHER ALMANAC - MARCH 18, 2013
[ Next Day → ]
[ °C ]   °F
Weather ElementAverageHighLow
Temperature40.5 °F50 °F (5:51 pm)37 °F (1:51 am)
Dewpoint33.7 °F36 °F (9:51 am)21 °F (10:51 pm)
Humidity78.9 %93 % (2:51 am)43 % (6:51 pm)
Barometer29.78 in30.04 in (11:51 pm)29.69 in (5:40 am)
Wind Speed10.5 mph23 mph (3:42 pm)
Wind Gust32.2 mph (3:42 pm)
Weather ElementAverage
Visibility6.3 mi
Wind DirectionWSW (249.7 °)

Weather ElementTotal
Precipitation0.04 in
Heating Degree Days21.5 (Base 65)
Averaged from 39 records on March 18, 2013
WEATHER CONDITIONS BREAKOUT
WIND DIRECTION BREAKOUT
WEATHER BY HOUR - MARCH 18, 2013
[ °C ]   °F
Local TimeTemperatureDewpointHumidityBarometerVisibilityWind DirectionWind SpeedGust SpeedPrecipitationEventsConditions
1:51 AM37.0 °F34.0 °F89 %29.76 in7.0 miENE (70°)9.2 mph0.03 inLight Drizzle
2:51 AM37.0 °F35.1 °F93 %29.74 in8.0 miEast (80°)6.9 mph0.00 inLight Drizzle
3:33 AM37.4 °F35.6 °F93 %29.71 in3.0 miNE (40°)5.8 mph0.00 inLight Drizzle
3:51 AM37.9 °F35.1 °F89 %29.73 in3.0 miNE (40°)5.8 mph0.00 inLight Drizzle
4:10 AM37.4 °F35.6 °F93 %29.70 in2.5 miNorth (360°)5.8 mph0.00 inLight Drizzle
4:51 AM37.0 °F35.1 °F93 %29.73 in2.5 miCalm0.01 inLight Drizzle
5:15 AM37.4 °F35.6 °F93 %29.70 in3.0 miCalm0.00 inLight Drizzle
5:40 AM37.4 °F35.6 °F93 %29.69 in4.0 miNorth (10°)3.5 mph0.00 inLight Drizzle
5:51 AM37.0 °F35.1 °F93 %29.72 in4.0 miNorth (360°)3.5 mph0.00 inLight Drizzle
6:51 AM37.0 °F35.1 °F93 %29.73 in4.0 miWNW (290°)4.6 mph0.00 inOvercast
6:57 AM37.4 °F35.6 °F93 %29.71 in3.0 miWNW (290°)4.6 mphOvercast
7:11 AM37.4 °F35.6 °F93 %29.71 in0.5 miWNW (300°)3.5 mphFogFog
7:51 AM37.0 °F35.1 °F93 %29.75 in0.5 miWNW (300°)4.6 mphFogFog
8:40 AM37.4 °F35.6 °F93 %29.71 in1.5 miWNW (300°)6.9 mphOvercast
8:51 AM37.0 °F35.1 °F93 %29.73 in1.5 miNW (310°)8.1 mphOvercast
9:07 AM37.4 °F35.6 °F93 %29.72 in1.0 miWest (280°)6.9 mphOvercast
9:19 AM37.4 °F35.6 °F93 %29.72 in2.0 miWNW (290°)8.1 mphOvercast
9:33 AM37.4 °F35.6 °F93 %29.72 in3.0 miWest (280°)9.2 mphOvercast
9:47 AM39.2 °F35.6 °F87 %29.72 in4.0 miWNW (300°)8.1 mphOvercast
9:51 AM39.0 °F36.0 °F89 %29.74 in4.0 miWNW (290°)8.1 mphOvercast
9:56 AM39.2 °F35.6 °F87 %29.72 in5.0 miWNW (290°)9.2 mphOvercast
10:33 AM39.2 °F35.6 °F87 %29.76 in9.0 miWest (280°)16.1 mph25.3 mphOvercast
10:51 AM39.9 °F35.1 °F83 %29.80 in9.0 miWest (280°)17.3 mphOvercast
11:04 AM41.0 °F35.6 °F81 %29.77 in10.0 miWNW (290°)18.4 mph28.8 mphOvercast
11:38 AM42.8 °F35.6 °F76 %29.77 in10.0 miWNW (290°)18.4 mph26.5 mphOvercast
11:51 AM42.1 °F35.1 °F76 %29.80 in10.0 miWNW (290°)15.0 mph24.2 mphOvercast
12:51 PM43.0 °F36.0 °F76 %29.81 in10.0 miWNW (300°)18.4 mph27.6 mphOvercast
1:51 PM44.6 °F35.6 °F71 %29.79 in10.0 miWNW (290°)18.4 mph28.8 mphOvercast
2:51 PM45.0 °F36.0 °F71 %29.82 in10.0 miWNW (300°)17.3 mph28.8 mphOvercast
3:42 PM46.4 °F35.6 °F66 %29.81 in10.0 miWest (280°)23.0 mph32.2 mphMostly Cloudy
3:51 PM46.0 °F34.0 °F63 %29.83 in10.0 miWest (280°)19.6 mph28.8 mphMostly Cloudy
4:51 PM48.9 °F34.0 °F56 %29.84 in10.0 miWNW (290°)15.0 mph26.5 mphScattered Clouds
5:51 PM50.0 °F33.1 °F52 %29.83 in10.0 miWNW (300°)12.7 mph21.9 mphScattered Clouds
6:51 PM48.9 °F27.0 °F43 %29.87 in9.0 miWNW (300°)16.1 mph27.6 mphPartly Cloudy
7:51 PM46.0 °F28.9 °F51 %29.89 in10.0 miWest (280°)12.7 mphPartly Cloudy
8:51 PM44.1 °F26.1 °F49 %29.93 in10.0 miWNW (290°)11.5 mph24.2 mphClear
9:51 PM43.0 °F25.0 °F49 %29.96 in10.0 miNW (310°)11.5 mphClear
10:51 PM41.0 °F21.0 °F45 %30.00 in10.0 miWNW (300°)15.0 mph25.3 mphClear
11:51 PM37.9 °F23.0 °F55 %30.04 in10.0 miNW (310°)9.2 mphClear
Hourly data recorded from KSTL, located miles away from Chesterfield, Missouri







STORIES FROM OUR PARTNERS